SWA1855 KBWI-KPVD

Flight info

Callsign SWA1855
Flight time 0h 47m
Altitude 35000
Route DUKPN1 BROSS Q419 RBV Q430 CREEL ORCHA JORDN JORDN2
Aircraft B73W/M-SDE2E3FGHIRWXY/LB1

Departure

Time 2026-05-07 13:20
Airport Baltimore/Washington International Thurgood Marshall Airport (KBWI)

Arrival

Time 2026-05-07 14:07
Airport Rhode Island T. F. Green International Airport (KPVD)
Time Latitude Longitude Altitude Speed Heading
2026-05-07 12:58 39.17678 -76.67015 146 ft 0 kts 85°
2026-05-07 13:11 39.17678 -76.67021 145 ft 2 kts 85°
2026-05-07 13:11 39.17677 -76.67040 145 ft 2 kts 85°
2026-05-07 13:12 39.17675 -76.67060 145 ft 2 kts 85°
2026-05-07 13:12 39.17674 -76.67079 144 ft 2 kts 85°
2026-05-07 13:12 39.17677 -76.67098 144 ft 2 kts 126°
2026-05-07 13:12 39.17688 -76.67110 144 ft 1 kts 165°
2026-05-07 13:13 39.17694 -76.67111 144 ft 1 kts 174°
2026-05-07 13:13 39.17697 -76.67112 144 ft 0 kts 171°
2026-05-07 13:14 39.17679 -76.67111 144 ft 5 kts 176°
2026-05-07 13:15 39.17634 -76.67086 144 ft 8 kts 144°
2026-05-07 13:15 39.17578 -76.67033 145 ft 10 kts 136°
2026-05-07 13:15 39.17544 -76.66960 146 ft 9 kts 108°
2026-05-07 13:15 39.17522 -76.66869 146 ft 11 kts 132°
2026-05-07 13:16 39.17465 -76.66798 146 ft 11 kts 108°
2026-05-07 13:16 39.17457 -76.66693 146 ft 12 kts 93°
2026-05-07 13:16 39.17449 -76.66570 146 ft 13 kts 95°
2026-05-07 13:16 39.17484 -76.66471 145 ft 12 kts 33°
2026-05-07 13:17 39.17524 -76.66383 144 ft 12 kts 106°
2026-05-07 13:17 39.17478 -76.66285 142 ft 13 kts 123°
2026-05-07 13:17 39.17454 -76.66167 139 ft 14 kts 95°
2026-05-07 13:17 39.17445 -76.66033 136 ft 15 kts 94°
2026-05-07 13:18 39.17438 -76.65890 134 ft 15 kts 94°
2026-05-07 13:18 39.17429 -76.65746 131 ft 16 kts 94°
2026-05-07 13:18 39.17421 -76.65597 125 ft 15 kts 99°
2026-05-07 13:18 39.17357 -76.65524 123 ft 12 kts 181°
2026-05-07 13:19 39.17287 -76.65556 125 ft 9 kts 237°
2026-05-07 13:19 39.17288 -76.65682 130 ft 37 kts 275°
2026-05-07 13:19 39.17325 -76.66353 143 ft 110 kts 274°
2026-05-07 13:19 39.17403 -76.67600 189 ft 163 kts 275°
2026-05-07 13:20 39.17495 -76.69025 835 ft 171 kts 278°
2026-05-07 13:20 39.17619 -76.70649 1387 ft 187 kts 279°
2026-05-07 13:20 39.17730 -76.72375 1919 ft 201 kts 279°
2026-05-07 13:20 39.17708 -76.74205 2465 ft 219 kts 262°
2026-05-07 13:21 39.16947 -76.76006 3022 ft 243 kts 229°
2026-05-07 13:21 39.15483 -76.77181 3684 ft 258 kts 202°
2026-05-07 13:21 39.13761 -76.77536 4634 ft 257 kts 181°
2026-05-07 13:21 39.12069 -76.76839 5513 ft 261 kts 148°
2026-05-07 13:22 39.10869 -76.75092 6200 ft 271 kts 124°
2026-05-07 13:22 39.09997 -76.72890 6789 ft 281 kts 118°
2026-05-07 13:22 39.09166 -76.70597 6984 ft 281 kts 119°
2026-05-07 13:22 39.08419 -76.68277 6985 ft 283 kts 110°
2026-05-07 13:23 39.08084 -76.65780 7015 ft 290 kts 92°
2026-05-07 13:23 39.08180 -76.63108 7435 ft 307 kts 86°
2026-05-07 13:23 39.08373 -76.60352 8182 ft 312 kts 86°
2026-05-07 13:23 39.08539 -76.57546 8891 ft 318 kts 88°
2026-05-07 13:24 39.08672 -76.54701 9636 ft 323 kts 89°
2026-05-07 13:24 39.08786 -76.51798 10292 ft 332 kts 89°
2026-05-07 13:24 39.08896 -76.48819 11082 ft 336 kts 89°
2026-05-07 13:24 39.09072 -76.45828 11835 ft 342 kts 83°
2026-05-07 13:25 39.09597 -76.42831 12620 ft 347 kts 72°
2026-05-07 13:25 39.10382 -76.39864 13367 ft 353 kts 68°
2026-05-07 13:25 39.11273 -76.36851 13813 ft 370 kts 67°
2026-05-07 13:25 39.12207 -76.33693 14215 ft 387 kts 69°
2026-05-07 13:26 39.13153 -76.30384 14583 ft 406 kts 69°
2026-05-07 13:26 39.14174 -76.26694 15035 ft 424 kts 70°
2026-05-07 13:26 39.15111 -76.22683 15366 ft 443 kts 76°
2026-05-07 13:26 39.15834 -76.18322 15769 ft 460 kts 80°
2026-05-07 13:27 39.16402 -76.13814 16360 ft 470 kts 83°
2026-05-07 13:27 39.16907 -76.09258 17049 ft 477 kts 84°
2026-05-07 13:27 39.17355 -76.04964 17634 ft 484 kts 84°
2026-05-07 13:27 39.17796 -76.00691 18162 ft 492 kts 84°
2026-05-07 13:28 39.18259 -75.96301 18762 ft 498 kts 83°
2026-05-07 13:28 39.18883 -75.91909 19305 ft 506 kts 77°
2026-05-07 13:28 39.19947 -75.87567 19969 ft 509 kts 68°
2026-05-07 13:28 39.21495 -75.83437 20466 ft 514 kts 57°
2026-05-07 13:29 39.23482 -75.79676 21002 ft 515 kts 46°
2026-05-07 13:29 39.25904 -75.76291 21592 ft 512 kts 37°
2026-05-07 13:29 39.28666 -75.73415 22139 ft 506 kts 26°
2026-05-07 13:29 39.31607 -75.71005 22614 ft 506 kts 21°
2026-05-07 13:30 39.34684 -75.68692 23025 ft 514 kts 21°
2026-05-07 13:30 39.37735 -75.66305 23645 ft 518 kts 22°
2026-05-07 13:30 39.40759 -75.63720 24237 ft 524 kts 25°
2026-05-07 13:30 39.43731 -75.60941 24820 ft 530 kts 28°
2026-05-07 13:31 39.46627 -75.58029 25488 ft 532 kts 30°
2026-05-07 13:31 39.49484 -75.54999 26283 ft 530 kts 31°
2026-05-07 13:31 39.52320 -75.51903 26823 ft 534 kts 32°
2026-05-07 13:31 39.55109 -75.48808 27442 ft 534 kts 32°
2026-05-07 13:32 39.57923 -75.45660 28110 ft 533 kts 32°
2026-05-07 13:32 39.60715 -75.42526 28690 ft 534 kts 32°
2026-05-07 13:32 39.63524 -75.39378 29160 ft 536 kts 31°
2026-05-07 13:32 39.66353 -75.36213 29747 ft 535 kts 31°
2026-05-07 13:33 39.69140 -75.33093 30322 ft 534 kts 32°
2026-05-07 13:33 39.71956 -75.29953 30706 ft 537 kts 31°
2026-05-07 13:33 39.74776 -75.26809 31196 ft 537 kts 31°
2026-05-07 13:33 39.77594 -75.23639 31869 ft 533 kts 32°
2026-05-07 13:34 39.80285 -75.20345 32293 ft 539 kts 36°
2026-05-07 13:34 39.85441 -75.13117 33056 ft 547 kts 39°
2026-05-07 13:34 39.87906 -75.09407 33536 ft 547 kts 41°
2026-05-07 13:35 39.90374 -75.05630 33988 ft 547 kts 41°
2026-05-07 13:35 39.92807 -75.01891 34465 ft 546 kts 41°
2026-05-07 13:35 39.95285 -74.98083 34905 ft 546 kts 41°
2026-05-07 13:36 40.00036 -74.89992 34955 ft 550 kts 48°
2026-05-07 13:36 40.04329 -74.81575 34954 ft 552 kts 51°
2026-05-07 13:37 40.08440 -74.73212 34954 ft 550 kts 51°
2026-05-07 13:37 40.12596 -74.64795 34952 ft 549 kts 50°
2026-05-07 13:38 40.16746 -74.56461 34950 ft 552 kts 51°
2026-05-07 13:38 40.20589 -74.47386 34947 ft 554 kts 60°
2026-05-07 13:39 40.23546 -74.37999 34944 ft 560 kts 67°
2026-05-07 13:39 40.26075 -74.28374 34941 ft 558 kts 70°
2026-05-07 13:40 40.28475 -74.18777 34934 ft 559 kts 71°
2026-05-07 13:40 40.30907 -74.09103 34934 ft 558 kts 70°
2026-05-07 13:41 40.33366 -73.99507 34933 ft 558 kts 69°
2026-05-07 13:41 40.35838 -73.89940 34928 ft 559 kts 70°
2026-05-07 13:42 40.38325 -73.80310 34814 ft 554 kts 69°
2026-05-07 13:42 40.39553 -73.75550 34418 ft 549 kts 69°
2026-05-07 13:42 40.40752 -73.70894 33889 ft 548 kts 69°
2026-05-07 13:42 40.41970 -73.66156 33301 ft 548 kts 69°
2026-05-07 13:43 40.43171 -73.61460 32884 ft 544 kts 69°
2026-05-07 13:43 40.44418 -73.56767 32393 ft 541 kts 67°
2026-05-07 13:43 40.45813 -73.52251 31886 ft 538 kts 63°
2026-05-07 13:43 40.47372 -73.47809 31443 ft 534 kts 60°
2026-05-07 13:44 40.49020 -73.43449 30979 ft 530 kts 59°
2026-05-07 13:44 40.50690 -73.39192 30483 ft 528 kts 59°
2026-05-07 13:44 40.52394 -73.34911 29982 ft 526 kts 59°
2026-05-07 13:44 40.54075 -73.30675 29478 ft 524 kts 59°
2026-05-07 13:45 40.55747 -73.26430 28971 ft 521 kts 60°
2026-05-07 13:45 40.57394 -73.22205 28473 ft 519 kts 60°
2026-05-07 13:45 40.59003 -73.18038 27973 ft 516 kts 60°
2026-05-07 13:45 40.60618 -73.13827 27468 ft 513 kts 61°
2026-05-07 13:46 40.62212 -73.09651 26961 ft 510 kts 61°
2026-05-07 13:46 40.63791 -73.05494 26462 ft 501 kts 60°
2026-05-07 13:46 40.65325 -73.01438 25983 ft 493 kts 61°
2026-05-07 13:46 40.66816 -72.97483 25505 ft 484 kts 62°
2026-05-07 13:47 40.68308 -72.93521 25024 ft 476 kts 60°
2026-05-07 13:47 40.69759 -72.89661 24562 ft 472 kts 62°
2026-05-07 13:47 40.71205 -72.85816 24101 ft 470 kts 61°
2026-05-07 13:47 40.72664 -72.81939 23631 ft 469 kts 61°
2026-05-07 13:48 40.74098 -72.78127 23159 ft 467 kts 62°
2026-05-07 13:48 40.75535 -72.74300 22689 ft 465 kts 61°
2026-05-07 13:48 40.76951 -72.70525 22222 ft 462 kts 62°
2026-05-07 13:48 40.78371 -72.66729 21752 ft 460 kts 62°
2026-05-07 13:49 40.79772 -72.62978 21278 ft 455 kts 62°
2026-05-07 13:49 40.81149 -72.59285 20828 ft 445 kts 62°
2026-05-07 13:49 40.82489 -72.55686 20378 ft 437 kts 62°
2026-05-07 13:49 40.83815 -72.52120 19937 ft 429 kts 62°
2026-05-07 13:50 40.85124 -72.48596 19491 ft 428 kts 63°
2026-05-07 13:50 40.86422 -72.45092 19044 ft 426 kts 63°
2026-05-07 13:50 40.87717 -72.41595 18597 ft 420 kts 63°
2026-05-07 13:50 40.88991 -72.38152 18174 ft 415 kts 63°
2026-05-07 13:51 40.90241 -72.34772 17756 ft 413 kts 64°
2026-05-07 13:51 40.91493 -72.31383 17434 ft 404 kts 64°
2026-05-07 13:51 40.92684 -72.28104 17114 ft 393 kts 65°
2026-05-07 13:51 40.93838 -72.24846 16687 ft 386 kts 65°
2026-05-07 13:52 40.94946 -72.21677 16292 ft 379 kts 66°
2026-05-07 13:52 40.96034 -72.18553 15767 ft 376 kts 65°
2026-05-07 13:52 40.97129 -72.15416 15438 ft 372 kts 66°
2026-05-07 13:52 40.98208 -72.12331 15096 ft 370 kts 65°
2026-05-07 13:53 40.99287 -72.09248 14706 ft 369 kts 65°
2026-05-07 13:53 41.00370 -72.06151 14307 ft 369 kts 65°
2026-05-07 13:53 41.01441 -72.03085 13905 ft 367 kts 66°
2026-05-07 13:53 41.02497 -72.00056 13514 ft 365 kts 65°
2026-05-07 13:54 41.03569 -71.96989 13111 ft 364 kts 65°
2026-05-07 13:54 41.04664 -71.94022 12824 ft 356 kts 60°
2026-05-07 13:54 41.06070 -71.91379 12360 ft 349 kts 43°
2026-05-07 13:54 41.07948 -71.89476 11872 ft 337 kts 24°
2026-05-07 13:55 41.09983 -71.88073 11478 ft 326 kts 19°
2026-05-07 13:55 41.12013 -71.86814 11084 ft 318 kts 18°
2026-05-07 13:55 41.14005 -71.85565 10485 ft 318 kts 19°
2026-05-07 13:55 41.15954 -71.84293 9973 ft 314 kts 20°
2026-05-07 13:56 41.17898 -71.82983 9468 ft 309 kts 20°
2026-05-07 13:56 41.19792 -71.81686 8940 ft 306 kts 21°
2026-05-07 13:56 41.21657 -71.80402 8478 ft 300 kts 21°
2026-05-07 13:56 41.23483 -71.79142 8026 ft 294 kts 21°
2026-05-07 13:57 41.25290 -71.77900 7525 ft 289 kts 21°
2026-05-07 13:57 41.27074 -71.76677 6900 ft 290 kts 21°
2026-05-07 13:57 41.28839 -71.75467 6304 ft 288 kts 21°
2026-05-07 13:57 41.30602 -71.74249 6017 ft 279 kts 21°
2026-05-07 13:58 41.32294 -71.73077 5731 ft 273 kts 21°
2026-05-07 13:58 41.33968 -71.71925 5423 ft 268 kts 21°
2026-05-07 13:58 41.35606 -71.70802 5119 ft 264 kts 22°
2026-05-07 13:58 41.37208 -71.69696 4836 ft 255 kts 22°
2026-05-07 13:59 41.38754 -71.68626 4535 ft 246 kts 22°
2026-05-07 13:59 41.40260 -71.67586 4256 ft 238 kts 22°
2026-05-07 13:59 41.41681 -71.66604 4111 ft 224 kts 22°
2026-05-07 13:59 41.43026 -71.65664 4000 ft 211 kts 22°
2026-05-07 14:00 41.44293 -71.64768 3842 ft 202 kts 22°
2026-05-07 14:00 41.45524 -71.63906 3555 ft 200 kts 21°
2026-05-07 14:00 41.46746 -71.63061 3289 ft 197 kts 22°
2026-05-07 14:00 41.47948 -71.62227 3013 ft 194 kts 21°
2026-05-07 14:01 41.49146 -71.61395 2698 ft 194 kts 22°
2026-05-07 14:01 41.50344 -71.60567 2384 ft 193 kts 22°
2026-05-07 14:01 41.51532 -71.59757 2099 ft 191 kts 22°
2026-05-07 14:01 41.52684 -71.58964 1983 ft 181 kts 23°
2026-05-07 14:02 41.53772 -71.58195 1987 ft 176 kts 22°
2026-05-07 14:02 41.54841 -71.57383 1992 ft 175 kts 26°
2026-05-07 14:02 41.55878 -71.56524 1996 ft 177 kts 26°
2026-05-07 14:02 41.56917 -71.55656 1994 ft 176 kts 26°
2026-05-07 14:03 41.57949 -71.54788 1996 ft 176 kts 26°
2026-05-07 14:03 41.58983 -71.53915 1993 ft 174 kts 26°
2026-05-07 14:03 41.59971 -71.53085 1986 ft 159 kts 26°
2026-05-07 14:03 41.60870 -71.52322 1994 ft 149 kts 25°
2026-05-07 14:04 41.61747 -71.51592 1993 ft 147 kts 25°
2026-05-07 14:04 41.62616 -71.50867 1975 ft 144 kts 25°
2026-05-07 14:04 41.63428 -71.50176 1796 ft 134 kts 25°
2026-05-07 14:04 41.64218 -71.49513 1625 ft 133 kts 25°
2026-05-07 14:05 41.65007 -71.48854 1447 ft 133 kts 25°
2026-05-07 14:05 41.65785 -71.48204 1268 ft 133 kts 25°
2026-05-07 14:05 41.66568 -71.47548 1101 ft 134 kts 26°
2026-05-07 14:05 41.67357 -71.46875 932 ft 135 kts 28°
2026-05-07 14:06 41.68160 -71.46195 758 ft 136 kts 27°
2026-05-07 14:06 41.68960 -71.45517 566 ft 136 kts 27°
2026-05-07 14:06 41.69759 -71.44860 391 ft 134 kts 28°
2026-05-07 14:06 41.70557 -71.44188 204 ft 135 kts 27°
2026-05-07 14:07 41.71346 -71.43529 68 ft 130 kts 28°
2026-05-07 14:07 41.71943 -71.43027 70 ft 68 kts 32°
2026-05-07 14:07 41.72232 -71.42786 65 ft 28 kts 34°
2026-05-07 14:07 41.72362 -71.42673 63 ft 13 kts 25°
2026-05-07 14:08 41.72451 -71.42686 63 ft 13 kts 316°
2026-05-07 14:08 41.72499 -71.42780 65 ft 11 kts 302°
2026-05-07 14:08 41.72538 -71.42860 66 ft 9 kts 302°
2026-05-07 14:08 41.72556 -71.42943 66 ft 9 kts 264°
2026-05-07 14:09 41.72551 -71.43036 66 ft 10 kts 266°
2026-05-07 14:09 41.72546 -71.43132 66 ft 10 kts 265°
2026-05-07 14:09 41.72541 -71.43223 67 ft 9 kts 266°
2026-05-07 14:09 41.72553 -71.43303 67 ft 8 kts 298°
2026-05-07 14:10 41.72589 -71.43355 68 ft 6 kts 322°
2026-05-07 14:10 41.72619 -71.43385 69 ft 3 kts 321°
2026-05-07 14:10 41.72631 -71.43399 69 ft 0 kts 321°